Custer, SD

7:36 PM MST on December 10, 2017 (GMT -0700)
Custer County

Weather History for KCUT - February, 2015

Change the Weather History Date:

Monday, February 23, 2015

  Actual Average Record
Temperature  
Mean Temperature 16 °F 27 °F  
Max Temperature 31 °F 38 °F 68 °F (1958)
Min Temperature 1 °F 16 °F -21 °F (1960)
Degree Days  
Heating Degree Days 49 38  
Month to date heating degree days 835 913  
Since 1 July heating degree days 5193 5648  
Cooling Degree Days 0 0  
Month to date cooling degree days 0 0  
Year to date cooling degree days 0 0  
Moisture  
Dew Point -3 °F    
Average Humidity 46    
Maximum Humidity 76    
Minimum Humidity 16    
Precipitation  
Precipitation 0.00 in 0.02 in 0.20 in (1943)
Month to date precipitation 0.11 0.44  
Year to date precipitation 0.35 0.77  
Sea Level Pressure  
Sea Level Pressure 30.34 in    
Wind  
Wind Speed 11 mph (West)    
Max Wind Speed 21 mph    
Max Gust Speed 27 mph    
Visibility 10 miles    
Events      
T = Trace of Precipitation, MM = Missing Value Source: NWS Daily Summary

Daily Weather History Graph

Daily Weather History Graph

Search for Another Location

Airport or City:

Trip Planner

Search our weather history database for the weather conditions in past years. The results will help you decide how hot, cold, wet, or windy it might be!

Date:

Astronomy

Feb. 23, 2015 Rise Set
Actual Time 6:41 AM MST 5:35 PM MST
Civil Twilight 6:12 AM MST 6:04 PM MST
Nautical Twilight 5:38 AM MST 6:37 PM MST
Astronomical Twilight 5:05 AM MST 7:10 PM MST
Moon 9:24 AM MST (2/23) 11:37 PM MST (2/23)
Length of Visible Light 11h 51m
Length of Day
10h 53m
Waxing Crescent, 30% of the Moon is Illuminated
Feb 23
Waxing Crescent
Feb 25
First Quarter
Mar 5
Full
Mar 13
Last Quarter
Mar 20
New

Hourly Weather History & Observations

Time (MST) Temp. Windchill Dew Point Humidity Pressure Visibility Wind Dir Wind Speed Gust Speed Precip Events Conditions
12:53 AM 1.9 °F -9.2 °F -6.0 °F 69% 30.60 in 10.0 mi WSW 5.8 mph - N/A   Clear
1:53 AM 3.9 °F -10.4 °F -4.0 °F 70% 30.58 in 10.0 mi West 9.2 mph - N/A   Clear
2:53 AM 5.0 °F -10.8 °F -4.0 °F 66% 30.55 in 10.0 mi West 11.5 mph - N/A   Clear
3:53 AM 5.0 °F -10.0 °F -2.9 °F 70% 30.54 in 10.0 mi West 10.4 mph - N/A   Clear
4:53 AM 5.0 °F -9.1 °F -2.9 °F 70% 30.53 in 10.0 mi West 9.2 mph - N/A   Clear
5:53 AM 5.0 °F -9.1 °F -2.9 °F 70% 30.53 in 10.0 mi West 9.2 mph - N/A   Clear
6:53 AM 5.0 °F -10.8 °F -2.9 °F 70% 30.52 in 10.0 mi West 11.5 mph - N/A   Clear
7:53 AM 9.0 °F -5.9 °F -2.0 °F 61% 30.49 in 10.0 mi WSW 11.5 mph 19.6 mph N/A   Clear
8:53 AM 12.0 °F -0.4 °F -0.9 °F 56% 30.47 in 10.0 mi WSW 9.2 mph 20.7 mph N/A   Clear
9:53 AM 15.1 °F 4.2 °F -0.9 °F 49% 30.45 in 10.0 mi WSW 8.1 mph 18.4 mph N/A   Clear
10:53 AM 19.9 °F 5.2 °F -0.9 °F 40% 30.43 in 10.0 mi West 17.3 mph - N/A   Clear
11:53 AM 24.1 °F 12.5 °F -4.0 °F 29% 30.35 in 10.0 mi WSW 12.7 mph 20.7 mph N/A   Clear
12:53 PM 27.0 °F 17.3 °F -9.0 °F 21% 30.28 in 10.0 mi West 10.4 mph 23.0 mph N/A   Clear
1:53 PM 28.0 °F 15.7 °F -13.0 °F 16% 30.25 in 10.0 mi West 17.3 mph 24.2 mph N/A   Clear
2:53 PM 30.0 °F 18.7 °F -11.9 °F 16% 30.20 in 10.0 mi West 16.1 mph 23.0 mph N/A   Clear
3:53 PM 30.0 °F 20.5 °F -11.0 °F 17% 30.19 in 10.0 mi WSW 11.5 mph 24.2 mph N/A   Clear
4:53 PM 26.1 °F 16.2 °F -7.1 °F 23% 30.18 in 10.0 mi West 10.4 mph 19.6 mph N/A   Partly Cloudy
5:53 PM 24.1 °F 12.5 °F -6.0 °F 27% 30.18 in 10.0 mi West 12.7 mph - N/A   Partly Cloudy
6:53 PM 25.0 °F 14.8 °F -6.0 °F 26% 30.17 in 10.0 mi West 10.4 mph - N/A   Partly Cloudy
7:53 PM 27.0 °F 16.7 °F -11.0 °F 19% 30.14 in 10.0 mi WNW 11.5 mph - N/A   Clear
8:53 PM 27.0 °F 19.5 °F 5.0 °F 39% 30.13 in 10.0 mi NW 6.9 mph 19.6 mph N/A   Partly Cloudy
9:53 PM 27.0 °F 18.0 °F 10.0 °F 49% 30.13 in 10.0 mi NW 9.2 mph - N/A   Clear
10:53 PM 27.0 °F 17.3 °F 12.0 °F 53% 30.10 in 10.0 mi NNW 10.4 mph - N/A   Clear
11:53 PM 28.0 °F 17.5 °F 15.1 °F 58% 30.09 in 10.0 mi NNW 12.7 mph 23.0 mph N/A   Mostly Cloudy